This is the latest recevied weather packets stored in our database for station/object DH6PF-10. If no packets are shown the sender has not sent any weather packets the latest 1 day(s).
| Time | Temp. | Humidity | Pressure | Rain* | Wind** | Luminosity | Snow |
|---|---|---|---|---|---|---|---|
| 1777972066 | 15° C | 94% | 1001 hPa | 0 mm | 0 m/s | - | - |
| 1777971466 | 15° C | 94% | 1001 hPa | 0 mm | 0 m/s | - | - |
| 1777970866 | 14.44° C | 93% | 1000 hPa | 0 mm | 0 m/s | - | - |
| 1777970266 | 15° C | 93% | 1001 hPa | 0 mm | 0.89 m/s, 269° | - | - |
| 1777969666 | 15° C | 94% | 1001 hPa | 0 mm | 0 m/s | - | - |
| 1777969066 | 15° C | 90% | 1001 hPa | 0 mm | 0 m/s | - | - |
| 1777968466 | 15° C | 91% | 1001 hPa | 0 mm | 0 m/s | - | - |
| 1777967866 | 15° C | 93% | 1001 hPa | 0 mm | 0 m/s | - | - |
| 1777967266 | 15° C | 94% | 1001 hPa | 0 mm | 0 m/s | - | - |
| 1777966666 | 14.44° C | 92% | 1001 hPa | 0 mm | 0 m/s | - | - |
| 1777966066 | 14.44° C | 96% | 1001 hPa | 0 mm | 0 m/s | - | - |
| 1777965466 | 13.89° C | 97% | 1001 hPa | 0 mm | 0 m/s | - | - |
| 1777964866 | 13.33° C | 98% | 1001 hPa | 0 mm | 0 m/s | - | - |
| 1777964266 | 13.33° C | 98% | 1001 hPa | 0 mm | 0 m/s | - | - |
| 1777963666 | 13.33° C | 98% | 1001 hPa | 0 mm | 0 m/s | - | - |
| 1777963066 | 13.33° C | 99% | 1001 hPa | 0 mm | 0 m/s | - | - |
| 1777962466 | 13.33° C | 99% | 1001 hPa | 0 mm | 0 m/s | - | - |
| 1777961866 | 12.78° C | 99% | 1001 hPa | 0 mm | 0 m/s | - | - |
| 1777961266 | 13.33° C | 99% | 1001 hPa | 0 mm | 0 m/s | - | - |
| 1777960666 | 12.78° C | 99% | 1001 hPa | 0 mm | 0 m/s | - | - |
| 1777960066 | 12.78° C | 99% | 1001 hPa | 0 mm | 0 m/s | - | - |
| 1777959466 | 12.78° C | 99% | 1001 hPa | 0 mm | 0 m/s | - | - |
| 1777958866 | 12.78° C | 99% | 1001 hPa | 0 mm | 0 m/s | - | - |
| 1777958266 | 12.78° C | 99% | 1001 hPa | 0 mm | 0 m/s | - | - |
| 1777957666 | 12.78° C | 99% | 1001 hPa | 0 mm | 0 m/s | - | - |
* Rain latest hour (hover to see other rain measurements)
** Current wind speed in m/s (hover to see current wind gust speed)